[TLELIST] Archives

 

[list_settings.list_name] Current TLEs

May 7th 2010 PST

HST 1 20580U 90037B 10127.15472643 .00000569 00000-0 30769-4 0 5611 2 20580 028.4685 147.7239 0003743 127.8601 232.2307 15.00966959898582 ISS (ZARYA) 1 25544U 98067A 10127.12342593 .00022715 00000-0 16144-3 0 1044 2 25544 051.6446 081.3270 0009387 283.8772 255.5181 15.73741966657007 CXO 1 25867U 99040B 10121.52738493 .00000000 00000-0 10000-3 0 4625 2 25867 066.9073 055.8553 8094949 275.2021 007.7102 00.37810912 6211 ____________________________________________________________________ These 2-Line ...Continue Reading

[list_settings.list_name] Current TLEs

May 6th 2010 PST

HST 1 20580U 90037B 10124.36202321 .00000601 00000-0 33174-4 0 5604 2 20580 028.4679 165.9513 0003653 101.8537 258.2463 15.00964583898168 ISS (ZARYA) 1 25544U 98067A 10126.22622196 .00023169 00000-0 16484-3 0 1012 2 25544 051.6443 085.9309 0009611 280.5299 212.4329 15.73702530656868 CXO 1 25867U 99040B 10126.75000000 .00000410 00000-0 10000-3 0 4604 2 25867 066.9370 055.6454 8104235 275.2151 358.6289 00.37806365 6236 ____________________________________________________________________ These 2-Line ...Continue Reading

[list_settings.list_name] Current TLEs

May 5th 2010 PST

HST 1 20580U 90037B 10124.36202321 .00000601 00000-0 33174-4 0 5604 2 20580 028.4679 165.9513 0003653 101.8537 258.2463 15.00964583898168 ISS (ZARYA) 1 25544U 98067A 10125.20442491 .00018877 00000-0 13548-3 0 968 2 25544 051.6449 091.1785 0009600 277.1224 183.2119 15.73650963656706 CXO 1 25867U 99040B 10124.08333333 .00000267 00000-0 10000-3 0 4594 2 25867 066.9252 055.7414 8100743 275.2087 355.6441 00.37806238 6225 ____________________________________________________________________ These 2-Line ...Continue Reading

[list_settings.list_name] Current TLEs

May 4th 2010 PST

HST 1 20580U 90037B 10121.56931503 .00000501 00000-0 25575-4 0 5586 2 20580 028.4691 184.1903 0003488 070.6584 289.4374 15.00962300897744 ISS (ZARYA) 1 25544U 98067A 10123.80155971 .00013968 00000-0 10186-3 0 877 2 25544 051.6446 098.3734 0009629 270.7524 156.8861 15.73560677656486 CXO 1 25867U 99040B 10124.08333333 .00000267 00000-0 10000-3 0 4594 2 25867 066.9252 055.7414 8100743 275.2087 355.6441 00.37806238 6225 ____________________________________________________________________ These 2-Line ...Continue Reading

[list_settings.list_name] Current TLEs

May 3rd 2010 PST

HST 1 20580U 90037B 10121.56931503 .00000501 00000-0 25575-4 0 5586 2 20580 028.4691 184.1903 0003488 070.6584 289.4374 15.00962300897744 ISS (ZARYA) 1 25544U 98067A 10123.37193926 .00013737 00000-0 10031-3 0 841 2 25544 051.6444 100.5779 0009600 269.2037 243.0791 15.73547058656412 CXO 1 25867U 99040B 10124.08333333 .00000267 00000-0 10000-3 0 4594 2 25867 066.9252 055.7414 8100743 275.2087 355.6441 00.37806238 6225 ____________________________________________________________________ These 2-Line ...Continue Reading

[list_settings.list_name] Current TLEs

May 2nd 2010 PST

HST 1 20580U 90037B 10110.59790984 .00000546 00000-0 28962-4 0 5530 2 20580 028.4707 255.8109 0003219 312.8116 047.2138 15.00954638896090 ISS (ZARYA) 1 25544U 98067A 10111.49552507 .00013653 00000-0 93719-4 0 162 2 25544 051.6458 161.5382 0003274 189.7157 311.2420 15.75046047654547 CXO 1 25867U 99040B 10110.91666667 .00000445 00000-0 10000-3 0 4543 2 25867 066.8584 056.3706 8071880 275.1976 003.1428 00.37803957 6177 ____________________________________________________________________ These 2-Line ...Continue Reading

[list_settings.list_name] Current TLEs

May 1st 2010 PST

HST 1 20580U 90037B 10110.59790984 .00000546 00000-0 28962-4 0 5530 2 20580 028.4707 255.8109 0003219 312.8116 047.2138 15.00954638896090 ISS (ZARYA) 1 25544U 98067A 10111.49552507 .00013653 00000-0 93719-4 0 162 2 25544 051.6458 161.5382 0003274 189.7157 311.2420 15.75046047654547 CXO 1 25867U 99040B 10110.91666667 .00000445 00000-0 10000-3 0 4543 2 25867 066.8584 056.3706 8071880 275.1976 003.1428 00.37803957 6177 ____________________________________________________________________ These 2-Line ...Continue Reading

[list_settings.list_name] Current TLEs

April 30th 2010 PST

HST 1 20580U 90037B 10110.59790984 .00000546 00000-0 28962-4 0 5530 2 20580 028.4707 255.8109 0003219 312.8116 047.2138 15.00954638896090 ISS (ZARYA) 1 25544U 98067A 10111.49552507 .00013653 00000-0 93719-4 0 162 2 25544 051.6458 161.5382 0003274 189.7157 311.2420 15.75046047654547 CXO 1 25867U 99040B 10110.91666667 .00000445 00000-0 10000-3 0 4543 2 25867 066.8584 056.3706 8071880 275.1976 003.1428 00.37803957 6177 ____________________________________________________________________ These 2-Line ...Continue Reading

[list_settings.list_name] Current TLEs

April 29th 2010 PST

HST 1 20580U 90037B 10110.59790984 .00000546 00000-0 28962-4 0 5530 2 20580 028.4707 255.8109 0003219 312.8116 047.2138 15.00954638896090 ISS (ZARYA) 1 25544U 98067A 10111.49552507 .00013653 00000-0 93719-4 0 162 2 25544 051.6458 161.5382 0003274 189.7157 311.2420 15.75046047654547 CXO 1 25867U 99040B 10110.91666667 .00000445 00000-0 10000-3 0 4543 2 25867 066.8584 056.3706 8071880 275.1976 003.1428 00.37803957 6177 ____________________________________________________________________ These 2-Line ...Continue Reading

[list_settings.list_name] Current TLEs

April 28th 2010 PST

HST 1 20580U 90037B 10110.59790984 .00000546 00000-0 28962-4 0 5530 2 20580 028.4707 255.8109 0003219 312.8116 047.2138 15.00954638896090 ISS (ZARYA) 1 25544U 98067A 10111.49552507 .00013653 00000-0 93719-4 0 162 2 25544 051.6458 161.5382 0003274 189.7157 311.2420 15.75046047654547 CXO 1 25867U 99040B 10110.91666667 .00000445 00000-0 10000-3 0 4543 2 25867 066.8584 056.3706 8071880 275.1976 003.1428 00.37803957 6177 ____________________________________________________________________ These 2-Line ...Continue Reading
  • This mailing list is a public mailing list - anyone may join or leave, at any time.
  • This mailing list is announce-only.

International Space Station (ISS) / Hubble Space Telescope (HST) / Chandra X-Ray Observatory Orbital Data via EMAIL

Privacy Policy:

Private list